Find Starlink 6077

NORAD ID: 56097 Int'l Des: 2023-046 Owner: SPXS Country: US Constellation: starlink operational
LEOCIRCULAR

Live Position

Loading 3D Globe...

About Starlink 6077

Description loading...

Upcoming Passes

Passes for default location (London). Set your location on the main map for personalized predictions.

Altitude History

Loading altitude history...

Two-Line Element Set

1 56097U 23046E 26121.91668981 -.00007190 00000-0 -26521-3 0 9990
2 56097 42.9999 173.6670 0001464 273.5863 173.7943 15.25917270 5840
Epoch: May 1, 2026 • Age: 8 hours

Current Status

Altitude 490.8 km
Velocity 7.62 km/s
Sub-Earth Point -15.46°S, 53.29°E
Launch Date Mar 29, 2023
Age 3 years
Type internet

Technical Details

Classification Payload
Mass 305.00 kg
Dry Mass 290.00 kg
Total Mass 305.00 kg
Length 0.20 m
Diameter 2.80 m
Span 9.00 m
Shape Box + pan
Manufacturer SPXS
Bus Type Starlink
Phase Status In Orbit
Owner/State SPXS/US

Most Searched